,,Stat6,,Stat2,,Stat8,,Stat9,,Stat10,,Wind1,,Wind1,
time,status,PA1M_AVG,status,PR1M_SUM,status,RH1M_AVG,status,SR1M_AVG,status,TA1M_AVG,status,W1dAve1m,status,W1sAve1m,
2007-06-10, 00:00:00,VALID,915.725,VALID,0,VALID,100,VALID,0.0169808,VALID,20.6871,VALID,187,VALID,1.20217,
2007-06-10, 00:01:00,VALID,915.718,VALID,0,VALID,100,VALID,0.0169808,VALID,20.6901,VALID,183,VALID,0.932594,
2007-06-10, 00:02:00,VALID,915.697,VALID,0,VALID,100,VALID,0.0169808,VALID,20.7096,VALID,187,VALID,0.957849,
2007-06-10, 00:03:00,VALID,915.699,VALID,0,VALID,100,VALID,-0.0169808,VALID,20.7231,VALID,191,VALID,0.928977,
2007-06-10, 00:04:00,VALID,915.694,VALID,0,VALID,100,VALID,0,VALID,20.7293,VALID,189,VALID,0.917874,
2007-06-10, 00:05:00,VALID,915.696,VALID,0,VALID,100,VALID,-0.0169808,VALID,20.7325,VALID,187,VALID,0.80785,
2007-06-10, 00:06:00,VALID,915.695,VALID,0,VALID,100,VALID,-0.0169808,VALID,20.7158,VALID,187,VALID,0.818452,
2007-06-10, 00:07:00,VALID,915.709,VALID,0,VALID,100,VALID,0,VALID,20.7196,VALID,184,VALID,0.698785,
2007-06-10, 00:08:00,VALID,915.696,VALID,0,VALID,100,VALID,0,VALID,20.7161,VALID,183,VALID,0.981771,
2007-06-10, 00:09:00,VALID,915.684,VALID,0,VALID,100,VALID,0.0169808,VALID,20.7063,VALID,184,VALID,0.611178,
2007-06-10, 00:10:00,VALID,915.67,VALID,0,VALID,100,VALID,0,VALID,20.6931,VALID,186,VALID,0.830208,
2007-06-10, 00:11:00,VALID,915.645,VALID,0,VALID,100,VALID,0.0169808,VALID,20.6996,VALID,186,VALID,1.08452,
2007-06-10, 00:12:00,VALID,915.628,VALID,0,VALID,100,VALID,0,VALID,20.7488,VALID,186,VALID,0.932617,
2007-06-10, 00:13:00,VALID,915.611,VALID,0,VALID,100,VALID,0,VALID,20.7453,VALID,186,VALID,1.01445,
2007-06-10, 00:14:00,VALID,915.6,VALID,0,VALID,100,VALID,0,VALID,20.7612,VALID,186,VALID,0.792411,
2007-06-10, 00:15:00,VALID,915.582,VALID,0,VALID,100,VALID,0,VALID,20.7577,VALID,179,VALID,0.554688,
2007-06-10, 00:16:00,VALID,915.581,VALID,0,VALID,100,VALID,0,VALID,20.7418,VALID,165,VALID,0.63299,
2007-06-10, 00:17:00,VALID,915.564,VALID,0,VALID,100,VALID,0,VALID,20.732,VALID,161,VALID,0.597656,
2007-06-10, 00:18:00,VALID,915.54,VALID,0,VALID,100,VALID,0,VALID,20.7323,VALID,161,VALID,0.383194,
2007-06-10, 00:19:00,VALID,915.53,VALID,0,VALID,100,VALID,-0.0169808,VALID,20.7361,VALID,155,VALID,0.433424,
2007-06-10, 00:20:00,VALID,915.522,VALID,0,VALID,100,VALID,0,VALID,20.7296,VALID,139,VALID,0.927024,
2007-06-10, 00:21:00,VALID,915.506,VALID,0,VALID,100,VALID,0,VALID,20.7163,VALID,136,VALID,1.01804,
2007-06-10, 00:22:00,VALID,915.5,VALID,0,VALID,100,VALID,0,VALID,20.7553,VALID,146,VALID,1.33812,
2007-06-10, 00:23:00,VALID,915.489,VALID,0,VALID,100,VALID,0.0169808,VALID,20.8099,VALID,175,VALID,0.773983,
2007-06-10, 00:24:00,VALID,915.483,VALID,0,VALID,100,VALID,-0.0169808,VALID,20.8562,VALID,177,VALID,0.838956,
2007-06-10, 00:25:00,VALID,915.477,VALID,0,VALID,100,VALID,0,VALID,20.8813,VALID,194,VALID,0.874273,
2007-06-10, 00:26:00,VALID,915.457,VALID,0,VALID,100,VALID,-0.0169808,VALID,20.9111,VALID,193,VALID,1.06193,
2007-06-10, 00:27:00,VALID,915.458,VALID,0,VALID,100,VALID,0.0169808,VALID,20.9165,VALID,211,VALID,0.95434,
2007-06-10, 00:28:00,VALID,915.442,VALID,0,VALID,100,VALID,0,VALID,20.9362,VALID,212,VALID,0.469322,
2007-06-10, 00:29:00,VALID,915.436,VALID,0,VALID,100,VALID,0,VALID,20.9533,VALID,192,VALID,0.262074,
2007-06-10, 00:30:00,VALID,915.444,VALID,0,VALID,100,VALID,0,VALID,20.963,VALID,192,VALID,0.0939405,
2007-06-10, 00:31:00,VALID,915.433,VALID,0,VALID,100,VALID,0,VALID,20.9825,VALID,193,VALID,0.101563,
2007-06-10, 00:32:00,VALID,915.439,VALID,0,VALID,100,VALID,-0.0169808,VALID,20.986,VALID,192,VALID,0.372514,
2007-06-10, 00:33:00,VALID,915.446,VALID,0,VALID,100,VALID,-0.0339617,VALID,20.992,VALID,173,VALID,0.519176,
2007-06-10, 00:34:00,VALID,915.446,VALID,0,VALID,100,VALID,-0.0339617,VALID,21.0012,VALID,164,VALID,0.526042,
2007-06-10, 00:35:00,VALID,915.437,VALID,0,VALID,100,VALID,-0.0339617,VALID,21.0052,VALID,181,VALID,0.367001,
2007-06-10, 00:36:00,VALID,915.426,VALID,0,VALID,100,VALID,-0.0169808,VALID,21.0152,VALID,167,VALID,0.253606,
2007-06-10, 00:37:00,VALID,915.405,VALID,0,VALID,100,VALID,-0.0339617,VALID,21.0185,VALID,167,VALID,0.147507,
2007-06-10, 00:38:00,VALID,915.39,VALID,0,VALID,100,VALID,0,VALID,21.0147,VALID,167,VALID,0.231957,
2007-06-10, 00:39:00,VALID,915.371,VALID,0,VALID,100,VALID,-0.0169808,VALID,21.0282,VALID,167,VALID,0.0251524,
2007-06-10, 00:40:00,VALID,915.357,VALID,0,VALID,100,VALID,0,VALID,21.0244,VALID,166,VALID,0.369855,
2007-06-10, 00:41:00,VALID,915.344,VALID,0,VALID,100,VALID,-0.0169808,VALID,21.0247,VALID,161,VALID,0.308061,
2007-06-10, 00:42:00,VALID,915.347,VALID,0,VALID,100,VALID,-0.0169808,VALID,21.0344,VALID,161,VALID,0.0809832,
2007-06-10, 00:43:00,VALID,915.347,VALID,0,VALID,100,VALID,-0.0339617,VALID,21.0282,VALID,161,VALID,0.506641,
2007-06-10, 00:44:00,VALID,915.348,VALID,0,VALID,100,VALID,-0.0169808,VALID,21.0179,VALID,161,VALID,0.252907,
2007-06-10, 00:45:00,VALID,915.332,VALID,0,VALID,100,VALID,-0.0169808,VALID,21.0182,VALID,161,VALID,0.360709,
2007-06-10, 00:46:00,VALID,915.319,VALID,0,VALID,100,VALID,-0.0169808,VALID,21.0144,VALID,161,VALID,0.379092,
2007-06-10, 00:47:00,VALID,915.298,VALID,0,VALID,100,VALID,0.0169808,VALID,21.0149,VALID,156,VALID,0.515434,
2007-06-10, 00:48:00,VALID,915.263,VALID,0,VALID,100,VALID,0,VALID,21.0087,VALID,139,VALID,0.25362,
2007-06-10, 00:49:00,VALID,915.238,VALID,0,VALID,100,VALID,0,VALID,21.0055,VALID,137,VALID,0.243359,
2007-06-10, 00:50:00,VALID,915.209,VALID,0,VALID,100,VALID,0,VALID,20.9892,VALID,139,VALID,0.601744,
2007-06-10, 00:51:00,VALID,915.17,VALID,0,VALID,100,VALID,-0.0339617,VALID,20.9598,VALID,153,VALID,1.09077,
2007-06-10, 00:52:00,VALID,915.145,VALID,0,VALID,100,VALID,0,VALID,20.9535,VALID,162,VALID,1.05489,
2007-06-10, 00:53:00,VALID,915.111,VALID,0,VALID,100,VALID,-0.0679233,VALID,20.9438,VALID,157,VALID,1.02782,
2007-06-10, 00:54:00,VALID,915.094,VALID,0,VALID,100,VALID,-0.0509425,VALID,20.9276,VALID,151,VALID,1.06613,
2007-06-10, 00:55:00,VALID,915.069,VALID,0,VALID,100,VALID,-0.0509425,VALID,20.9308,VALID,146,VALID,0.703635,
2007-06-10, 00:56:00,VALID,915.064,VALID,0,VALID,100,VALID,-0.0509425,VALID,20.9081,VALID,129,VALID,0.618576,
2007-06-10, 00:57:00,VALID,915.037,VALID,0,VALID,100,VALID,-0.0169808,VALID,20.8886,VALID,127,VALID,0.632986,
2007-06-10, 00:58:00,VALID,915.013,VALID,0,VALID,100,VALID,-0.0509425,VALID,20.8886,VALID,127,VALID,0.772905,
2007-06-10, 00:59:00,VALID,914.985,VALID,0,VALID,100,VALID,-0.0339617,VALID,20.8756,VALID,121,VALID,0.884448,
2007-06-10, 01:00:00,VALID,914.986,VALID,0,VALID,100,VALID,-0.0169808,VALID,20.8494,VALID,120,VALID,0.894903,
2007-06-10, 01:01:00,VALID,914.97,VALID,0,VALID,100,VALID,-0.0509425,VALID,20.8432,VALID,120,VALID,0.915015,
2007-06-10, 01:02:00,VALID,914.954,VALID,0,VALID,100,VALID,-0.0169808,VALID,20.8269,VALID,112,VALID,0.806504,
2007-06-10, 01:03:00,VALID,914.948,VALID,0,VALID,100,VALID,-0.0169808,VALID,20.791,VALID,117,VALID,0.915365,
2007-06-10, 01:04:00,VALID,914.938,VALID,0,VALID,100,VALID,-0.0849042,VALID,20.7815,VALID,118,VALID,0.80785,
2007-06-10, 01:05:00,VALID,914.924,VALID,0,VALID,100,VALID,0,VALID,20.7655,VALID,106,VALID,0.663542,
2007-06-10, 01:06:00,VALID,914.934,VALID,0,VALID,100,VALID,0,VALID,20.7488,VALID,104,VALID,0.897222,
2007-06-10, 01:07:00,VALID,914.929,VALID,0,VALID,100,VALID,0,VALID,20.7225,VALID,97,VALID,0.752907,
2007-06-10, 01:08:00,VALID,914.913,VALID,0,VALID,100,VALID,-0.0339617,VALID,20.7096,VALID,100,VALID,1.07722,
2007-06-10, 01:09:00,VALID,914.915,VALID,0,VALID,100,VALID,-0.0169808,VALID,20.7004,VALID,98,VALID,0.855183,
2007-06-10, 01:10:00,VALID,914.892,VALID,0,VALID,100,VALID,-0.0339617,VALID,20.6868,VALID,98,VALID,0.546148,
2007-06-10, 01:11:00,VALID,914.884,VALID,0,VALID,100,VALID,-0.0679233,VALID,20.6674,VALID,80,VALID,0.525815,
2007-06-10, 01:12:00,VALID,914.877,VALID,0,VALID,100,VALID,0.0169808,VALID,20.6804,VALID,113,VALID,0.847241,
2007-06-10, 01:13:00,VALID,914.857,VALID,0,VALID,100,VALID,0,VALID,20.6904,VALID,123,VALID,0.557664,
2007-06-10, 01:14:00,VALID,914.86,VALID,0,VALID,100,VALID,0,VALID,20.6866,VALID,100,VALID,0.737326,
2007-06-10, 01:15:00,VALID,914.856,VALID,0,VALID,100,VALID,0,VALID,20.6996,VALID,105,VALID,0.81577,
2007-06-10, 01:16:00,VALID,914.861,VALID,0,VALID,100,VALID,0.0169808,VALID,20.7093,VALID,105,VALID,0.855824,
2007-06-10, 01:17:00,VALID,914.853,VALID,0,VALID,100,VALID,-0.0169808,VALID,20.7255,VALID,126,VALID,0.999637,
2007-06-10, 01:18:00,VALID,914.855,VALID,0,VALID,100,VALID,0,VALID,20.7453,VALID,120,VALID,0.955729,
2007-06-10, 01:19:00,VALID,914.862,VALID,0,VALID,100,VALID,0,VALID,20.7325,VALID,114,VALID,0.714286,
2007-06-10, 01:20:00,VALID,914.849,VALID,0,VALID,100,VALID,-0.0169808,VALID,20.729,VALID,126,VALID,1.08365,
2007-06-10, 01:21:00,VALID,914.834,VALID,0,VALID,100,VALID,0.0169808,VALID,20.7126,VALID,113,VALID,0.545015,
2007-06-10, 01:22:00,VALID,914.825,VALID,0,VALID,100,VALID,-0.0169808,VALID,20.699,VALID,105,VALID,0.63186,
2007-06-10, 01:23:00,VALID,914.784,VALID,0,VALID,100,VALID,0,VALID,20.7126,VALID,92,VALID,0.519618,
2007-06-10, 01:24:00,VALID,914.766,VALID,0,VALID,100,VALID,0,VALID,20.722,VALID,91,VALID,1.00854,
2007-06-10, 01:25:00,VALID,914.743,VALID,0,VALID,100,VALID,0.0169808,VALID,20.738,VALID,82,VALID,1.14002,
2007-06-10, 01:26:00,VALID,914.726,VALID,0,VALID,100,VALID,0,VALID,20.719,VALID,71,VALID,0.854353,
2007-06-10, 01:27:00,VALID,914.708,VALID,0,VALID,100,VALID,0,VALID,20.7026,VALID,61,VALID,0.930715,
2007-06-10, 01:28:00,VALID,914.691,VALID,0,VALID,100,VALID,0,VALID,20.6833,VALID,52,VALID,0.778258,
2007-06-10, 01:29:00,VALID,914.679,VALID,0,VALID,100,VALID,0,VALID,20.6506,VALID,48,VALID,0.855945,
2007-06-10, 01:30:00,VALID,914.661,VALID,0,VALID,100,VALID,0,VALID,20.6311,VALID,43,VALID,0.934152,
2007-06-10, 01:31:00,VALID,914.654,VALID,0,VALID,100,VALID,0,VALID,20.6047,VALID,44,VALID,0.833757,
2007-06-10, 01:32:00,VALID,914.647,VALID,0,VALID,100,VALID,0.0169808,VALID,20.5827,VALID,55,VALID,0.904726,
2007-06-10, 01:33:00,VALID,914.629,VALID,0,VALID,100,VALID,0,VALID,20.566,VALID,60,VALID,1.00707,
2007-06-10, 01:34:00,VALID,914.63,VALID,0,VALID,100,VALID,0.0169808,VALID,20.5627,VALID,62,VALID,1.0033,
2007-06-10, 01:35:00,VALID,914.613,VALID,0,VALID,100,VALID,0.0169808,VALID,20.5565,VALID,56,VALID,0.992932,
2007-06-10, 01:36:00,VALID,914.594,VALID,0,VALID,100,VALID,0.0169808,VALID,20.5335,VALID,54,VALID,0.862909,
2007-06-10, 01:37:00,VALID,914.576,VALID,0,VALID,100,VALID,-0.0169808,VALID,20.5211,VALID,45,VALID,0.84189,
2007-06-10, 01:38:00,VALID,914.561,VALID,0,VALID,100,VALID,-0.0169808,VALID,20.5216,VALID,27,VALID,0.576672,
2007-06-10, 01:39:00,VALID,914.549,VALID,0,VALID,100,VALID,0.0339617,VALID,20.5111,VALID,27,VALID,0.592478,
2007-06-10, 01:40:00,VALID,914.558,VALID,0,VALID,100,VALID,-0.0169808,VALID,20.5176,VALID,27,VALID,0.521662,
2007-06-10, 01:41:00,VALID,914.555,VALID,0,VALID,100,VALID,0,VALID,20.5211,VALID,27,VALID,0.24082,
2007-06-10, 01:42:00,VALID,914.553,VALID,0,VALID,100,VALID,0,VALID,20.5051,VALID,64,VALID,0.607469,
2007-06-10, 01:43:00,VALID,914.573,VALID,0,VALID,100,VALID,0,VALID,20.4794,VALID,67,VALID,0.577123,
2007-06-10, 01:44:00,VALID,914.573,VALID,0,VALID,100,VALID,0,VALID,20.4464,VALID,70,VALID,0.700817,
2007-06-10, 01:45:00,VALID,914.577,VALID,0,VALID,100,VALID,0,VALID,20.4434,VALID,98,VALID,0.714558,
2007-06-10, 01:46:00,VALID,914.59,VALID,0,VALID,100,VALID,-0.0169808,VALID,20.391,VALID,117,VALID,0.78125,
2007-06-10, 01:47:00,VALID,914.594,VALID,0,VALID,100,VALID,0.0169808,VALID,20.3783,VALID,118,VALID,0.8391,
2007-06-10, 01:48:00,VALID,914.599,VALID,0,VALID,100,VALID,0,VALID,20.3818,VALID,118,VALID,0.575707,
2007-06-10, 01:49:00,VALID,914.592,VALID,0,VALID,100,VALID,0,VALID,20.368,VALID,121,VALID,0.636458,
2007-06-10, 01:50:00,VALID,914.588,VALID,0,VALID,100,VALID,0,VALID,20.3713,VALID,125,VALID,0.533854,
2007-06-10, 01:51:00,VALID,914.591,VALID,0,VALID,100,VALID,0.0339617,VALID,20.3877,VALID,124,VALID,0.548314,
2007-06-10, 01:52:00,VALID,914.59,VALID,0,VALID,100,VALID,0.0169808,VALID,20.4177,VALID,124,VALID,0.651867,
2007-06-10, 01:53:00,VALID,914.578,VALID,0,VALID,100,VALID,0.0169808,VALID,20.4072,VALID,129,VALID,0.655895,
2007-06-10, 01:54:00,VALID,914.573,VALID,0,VALID,100,VALID,0,VALID,20.4075,VALID,140,VALID,0.707812,
2007-06-10, 01:55:00,VALID,914.559,VALID,0,VALID,100,VALID,0.0509425,VALID,20.397,VALID,148,VALID,0.919097,
2007-06-10, 01:56:00,VALID,914.539,VALID,0,VALID,100,VALID,0.0339617,VALID,20.3872,VALID,153,VALID,1.08416,
2007-06-10, 01:57:00,VALID,914.508,VALID,0,VALID,100,VALID,0.0339617,VALID,20.4002,VALID,159,VALID,1.18877,
2007-06-10, 01:58:00,VALID,914.5,VALID,0,VALID,100,VALID,0.0169808,VALID,20.4142,VALID,161,VALID,1.26978,
2007-06-10, 01:59:00,VALID,914.513,VALID,0,VALID,100,VALID,0,VALID,20.4272,VALID,158,VALID,1.12426,
2007-06-10, 02:00:00,VALID,914.481,VALID,0,VALID,100,VALID,0,VALID,20.4202,VALID,154,VALID,0.965298,
2007-06-10, 02:01:00,VALID,914.477,VALID,0,VALID,100,VALID,0,VALID,20.4172,VALID,149,VALID,0.888263,
2007-06-10, 02:02:00,VALID,914.469,VALID,0,VALID,100,VALID,0,VALID,20.4037,VALID,139,VALID,1.01507,
2007-06-10, 02:03:00,VALID,914.448,VALID,0,VALID,100,VALID,-0.0169808,VALID,20.4134,VALID,139,VALID,1.21615,
2007-06-10, 02:04:00,VALID,914.447,VALID,0,VALID,100,VALID,0,VALID,20.4234,VALID,133,VALID,1.23772,
2007-06-10, 02:05:00,VALID,914.455,VALID,0,VALID,100,VALID,0,VALID,20.4367,VALID,135,VALID,1.39444,
2007-06-10, 02:06:00,VALID,914.431,VALID,0,VALID,100,VALID,0.0169808,VALID,20.4459,VALID,124,VALID,1.56068,
2007-06-10, 02:07:00,VALID,914.434,VALID,0,VALID,100,VALID,0.0339617,VALID,20.4462,VALID,118,VALID,1.18598,
2007-06-10, 02:08:00,VALID,914.434,VALID,0,VALID,100,VALID,0,VALID,20.4362,VALID,124,VALID,1.04934,
2007-06-10, 02:09:00,VALID,914.443,VALID,0,VALID,100,VALID,-0.0339617,VALID,20.4302,VALID,129,VALID,0.883539,
2007-06-10, 02:10:00,VALID,914.449,VALID,0,VALID,100,VALID,0,VALID,20.4169,VALID,136,VALID,1.0404,
2007-06-10, 02:11:00,VALID,914.443,VALID,0,VALID,100,VALID,0.0339617,VALID,20.3937,VALID,139,VALID,1.10014,
2007-06-10, 02:12:00,VALID,914.439,VALID,0,VALID,100,VALID,0,VALID,20.391,VALID,141,VALID,1.23136,
2007-06-10, 02:13:00,VALID,914.447,VALID,0,VALID,100,VALID,0,VALID,20.375,VALID,147,VALID,0.971799,
2007-06-10, 02:14:00,VALID,914.453,VALID,0,VALID,100,VALID,-0.0339617,VALID,20.3526,VALID,136,VALID,1.09338,
2007-06-10, 02:15:00,VALID,914.43,VALID,0,VALID,100,VALID,-0.0849042,VALID,20.3241,VALID,138,VALID,0.985243,
2007-06-10, 02:16:00,VALID,914.434,VALID,0,VALID,100,VALID,-0.101885,VALID,20.3044,VALID,149,VALID,0.984553,
2007-06-10, 02:17:00,VALID,914.423,VALID,0,VALID,100,VALID,-0.0679233,VALID,20.2849,VALID,150,VALID,0.483648,
2007-06-10, 02:18:00,VALID,914.416,VALID,0,VALID,100,VALID,-0.0849042,VALID,20.2852,VALID,143,VALID,0.485263,
2007-06-10, 02:19:00,VALID,914.394,VALID,0,VALID,100,VALID,-0.0679233,VALID,20.2687,VALID,141,VALID,0.238961,
2007-06-10, 02:20:00,VALID,914.384,VALID,0,VALID,100,VALID,-0.101885,VALID,20.259,VALID,141,VALID,0.576172,
2007-06-10, 02:21:00,VALID,914.38,VALID,0,VALID,100,VALID,-0.0849042,VALID,20.2525,VALID,148,VALID,0.635045,
2007-06-10, 02:22:00,VALID,914.386,VALID,0,VALID,100,VALID,-0.0509425,VALID,20.2425,VALID,150,VALID,0.459223,
2007-06-10, 02:23:00,VALID,914.396,VALID,0,VALID,100,VALID,-0.0339617,VALID,20.2427,VALID,139,VALID,0.355664,
2007-06-10, 02:24:00,VALID,914.416,VALID,0,VALID,100,VALID,-0.0849042,VALID,20.223,VALID,136,VALID,0.413881,
2007-06-10, 02:25:00,VALID,914.441,VALID,0,VALID,100,VALID,-0.101885,VALID,20.2135,VALID,136,VALID,0.460379,
2007-06-10, 02:26:00,VALID,914.441,VALID,0,VALID,100,VALID,-0.101885,VALID,20.2103,VALID,156,VALID,1.01217,
2007-06-10, 02:27:00,VALID,914.46,VALID,0,VALID,100,VALID,-0.0339617,VALID,20.2233,VALID,172,VALID,0.676525,
2007-06-10, 02:28:00,VALID,914.458,VALID,0,VALID,100,VALID,-0.0509425,VALID,20.2262,VALID,177,VALID,0.59003,
2007-06-10, 02:29:00,VALID,914.475,VALID,0,VALID,100,VALID,-0.0339617,VALID,20.2495,VALID,196,VALID,0.542882,
2007-06-10, 02:30:00,VALID,914.492,VALID,0,VALID,100,VALID,-0.0849042,VALID,20.2657,VALID,184,VALID,0.376635,
2007-06-10, 02:31:00,VALID,914.533,VALID,0,VALID,100,VALID,-0.0849042,VALID,20.2595,VALID,174,VALID,0.185724,
2007-06-10, 02:32:00,VALID,914.558,VALID,0,VALID,100,VALID,-0.0679233,VALID,20.2627,VALID,187,VALID,0.0825639,
2007-06-10, 02:33:00,VALID,914.58,VALID,0,VALID,100,VALID,-0.0849042,VALID,20.2557,VALID,187,VALID,0.302326,
2007-06-10, 02:34:00,VALID,914.596,VALID,0,VALID,100,VALID,-0.0679233,VALID,20.2652,VALID,187,VALID,0.244913,
2007-06-10, 02:35:00,VALID,914.619,VALID,0,VALID,100,VALID,-0.101885,VALID,20.2622,VALID,247,VALID,0.671131,
2007-06-10, 02:36:00,VALID,914.624,VALID,0,VALID,100,VALID,-0.0849042,VALID,20.2687,VALID,258,VALID,0.483648,
2007-06-10, 02:37:00,VALID,914.623,VALID,0,VALID,100,VALID,-0.101885,VALID,20.2687,VALID,258,VALID,0.467226,
2007-06-10, 02:38:00,VALID,914.615,VALID,0,VALID,100,VALID,-0.0849042,VALID,20.2914,VALID,247,VALID,0.209413,
2007-06-10, 02:39:00,VALID,914.614,VALID,0,VALID,100,VALID,-0.0849042,VALID,20.3174,VALID,244,VALID,0,
2007-06-10, 02:40:00,VALID,914.597,VALID,0,VALID,100,VALID,-0.0849042,VALID,20.3466,VALID,244,VALID,0,
2007-06-10, 02:41:00,VALID,914.579,VALID,0,VALID,100,VALID,-0.101885,VALID,20.3468,VALID,244,VALID,0.070503,
2007-06-10, 02:42:00,VALID,914.563,VALID,0,VALID,100,VALID,-0.101885,VALID,20.3438,VALID,244,VALID,0.056686,
2007-06-10, 02:43:00,VALID,914.531,VALID,0,VALID,100,VALID,-0.0849042,VALID,20.3336,VALID,244,VALID,0,
2007-06-10, 02:44:00,VALID,914.511,VALID,0,VALID,100,VALID,-0.0679233,VALID,20.3406,VALID,244,VALID,0,
2007-06-10, 02:45:00,VALID,914.519,VALID,0,VALID,100,VALID,-0.101885,VALID,20.3433,VALID,244,VALID,0,
2007-06-10, 02:46:00,VALID,914.513,VALID,0,VALID,100,VALID,-0.0849042,VALID,20.3596,VALID,244,VALID,0,
2007-06-10, 02:47:00,VALID,914.498,VALID,0,VALID,100,VALID,-0.0849042,VALID,20.3658,VALID,244,VALID,0,
2007-06-10, 02:48:00,VALID,914.499,VALID,0,VALID,100,VALID,-0.101885,VALID,20.3823,VALID,244,VALID,0,
2007-06-10, 02:49:00,VALID,914.501,VALID,0,VALID,100,VALID,-0.0849042,VALID,20.392,VALID,244,VALID,0,
2007-06-10, 02:50:00,VALID,914.511,VALID,0,VALID,100,VALID,-0.0849042,VALID,20.3985,VALID,244,VALID,0,
2007-06-10, 02:51:00,VALID,914.524,VALID,0,VALID,100,VALID,-0.0339617,VALID,20.3983,VALID,244,VALID,0,
2007-06-10, 02:52:00,VALID,914.529,VALID,0,VALID,100,VALID,-0.101885,VALID,20.395,VALID,244,VALID,0,
2007-06-10, 02:53:00,VALID,914.533,VALID,0,VALID,100,VALID,-0.0849042,VALID,20.3953,VALID,244,VALID,0,
2007-06-10, 02:54:00,VALID,914.535,VALID,0,VALID,100,VALID,-0.0509425,VALID,20.382,VALID,244,VALID,0.0599564,
2007-06-10, 02:55:00,VALID,914.54,VALID,0,VALID,100,VALID,-0.101885,VALID,20.389,VALID,244,VALID,0.0716146,
2007-06-10, 02:56:00,VALID,914.525,VALID,0,VALID,100,VALID,-0.101885,VALID,20.379,VALID,244,VALID,0.0671875,
2007-06-10, 02:57:00,VALID,914.529,VALID,0,VALID,100,VALID,-0.0849042,VALID,20.379,VALID,244,VALID,0,
2007-06-10, 02:58:00,VALID,914.536,VALID,0,VALID,100,VALID,-0.101885,VALID,20.3923,VALID,244,VALID,0,
2007-06-10, 02:59:00,VALID,914.529,VALID,0,VALID,100,VALID,-0.0169808,VALID,20.3685,VALID,244,VALID,0,
2007-06-10, 03:00:00,VALID,914.533,VALID,0,VALID,100,VALID,0.0169808,VALID,20.3748,VALID,244,VALID,0,
2007-06-10, 03:01:00,VALID,914.539,VALID,0,VALID,100,VALID,0,VALID,20.375,VALID,244,VALID,0,
2007-06-10, 03:02:00,VALID,914.564,VALID,0,VALID,100,VALID,0,VALID,20.385,VALID,244,VALID,0,
2007-06-10, 03:03:00,VALID,914.566,VALID,0,VALID,100,VALID,0.0169808,VALID,20.3845,VALID,231,VALID,0.139737,
2007-06-10, 03:04:00,VALID,914.577,VALID,0,VALID,100,VALID,0.0339617,VALID,20.3813,VALID,209,VALID,0.252668,
2007-06-10, 03:05:00,VALID,914.588,VALID,0,VALID,100,VALID,0,VALID,20.3877,VALID,203,VALID,0.165698,
2007-06-10, 03:06:00,VALID,914.58,VALID,0,VALID,100,VALID,0,VALID,20.3977,VALID,170,VALID,0.586128,
2007-06-10, 03:07:00,VALID,914.581,VALID,0,VALID,100,VALID,0,VALID,20.368,VALID,160,VALID,0.486607,
2007-06-10, 03:08:00,VALID,914.574,VALID,0,VALID,100,VALID,-0.0169808,VALID,20.372,VALID,160,VALID,0.219638,
2007-06-10, 03:09:00,VALID,914.56,VALID,0,VALID,100,VALID,0.0169808,VALID,20.365,VALID,160,VALID,0.120898,
2007-06-10, 03:10:00,VALID,914.52,VALID,0,VALID,100,VALID,0.0339617,VALID,20.3558,VALID,160,VALID,0.387109,
2007-06-10, 03:11:00,VALID,914.517,VALID,0,VALID,100,VALID,0,VALID,20.3388,VALID,155,VALID,0.583147,
2007-06-10, 03:12:00,VALID,914.514,VALID,0,VALID,100,VALID,0.0509425,VALID,20.3458,VALID,154,VALID,0.65625,
2007-06-10, 03:13:00,VALID,914.51,VALID,0,VALID,100,VALID,0.0339617,VALID,20.3291,VALID,156,VALID,0.604167,
2007-06-10, 03:14:00,VALID,914.516,VALID,0,VALID,100,VALID,-0.0339617,VALID,20.3336,VALID,145,VALID,0.560785,
2007-06-10, 03:15:00,VALID,914.497,VALID,0,VALID,100,VALID,-0.101885,VALID,20.3211,VALID,150,VALID,0.601563,
2007-06-10, 03:16:00,VALID,914.502,VALID,0,VALID,100,VALID,-0.0849042,VALID,20.3181,VALID,161,VALID,0.373512,
2007-06-10, 03:17:00,VALID,914.503,VALID,0,VALID,100,VALID,-0.0679233,VALID,20.3144,VALID,170,VALID,0.650799,
2007-06-10, 03:18:00,VALID,914.507,VALID,0,VALID,100,VALID,-0.0509425,VALID,20.3144,VALID,156,VALID,0.910069,
2007-06-10, 03:19:00,VALID,914.512,VALID,0,VALID,100,VALID,-0.0679233,VALID,20.3174,VALID,170,VALID,0.444741,
2007-06-10, 03:20:00,VALID,914.509,VALID,0,VALID,100,VALID,-0.0679233,VALID,20.3176,VALID,182,VALID,0,
2007-06-10, 03:21:00,VALID,914.508,VALID,0,VALID,100,VALID,-0.101885,VALID,20.3241,VALID,194,VALID,0.0677689,
2007-06-10, 03:22:00,VALID,914.521,VALID,0,VALID,100,VALID,-0.0849042,VALID,20.2979,VALID,239,VALID,0.297447,
2007-06-10, 03:23:00,VALID,914.511,VALID,0,VALID,100,VALID,-0.0849042,VALID,20.2979,VALID,246,VALID,0.318496,
2007-06-10, 03:24:00,VALID,914.499,VALID,0,VALID,100,VALID,-0.0679233,VALID,20.2979,VALID,260,VALID,0.320126,
2007-06-10, 03:25:00,VALID,914.479,VALID,0,VALID,100,VALID,-0.0679233,VALID,20.3076,VALID,247,VALID,0.472656,
2007-06-10, 03:26:00,VALID,914.474,VALID,0,VALID,100,VALID,-0.0679233,VALID,20.3311,VALID,248,VALID,0.112926,
2007-06-10, 03:27:00,VALID,914.44,VALID,0,VALID,100,VALID,-0.0849042,VALID,20.3239,VALID,248,VALID,0.21503,
2007-06-10, 03:28:00,VALID,914.407,VALID,0,VALID,100,VALID,-0.0679233,VALID,20.3403,VALID,247,VALID,0.019436,
2007-06-10, 03:29:00,VALID,914.38,VALID,0,VALID,100,VALID,-0.0509425,VALID,20.3398,VALID,248,VALID,0,
2007-06-10, 03:30:00,VALID,914.354,VALID,0,VALID,100,VALID,0.0169808,VALID,20.3428,VALID,248,VALID,0.0110085,
2007-06-10, 03:31:00,VALID,914.339,VALID,0,VALID,100,VALID,0,VALID,20.3326,VALID,247,VALID,0,
2007-06-10, 03:32:00,VALID,914.322,VALID,0,VALID,100,VALID,0,VALID,20.3461,VALID,247,VALID,0,
2007-06-10, 03:33:00,VALID,914.313,VALID,0,VALID,100,VALID,0.0509425,VALID,20.345,VALID,247,VALID,0.102273,
2007-06-10, 03:34:00,VALID,914.321,VALID,0,VALID,100,VALID,0.0509425,VALID,20.3353,VALID,247,VALID,0.0198038,
2007-06-10, 03:35:00,VALID,914.321,VALID,0,VALID,100,VALID,0.0509425,VALID,20.3323,VALID,240,VALID,0.321456,
2007-06-10, 03:36:00,VALID,914.319,VALID,0,VALID,100,VALID,0.0509425,VALID,20.3223,VALID,189,VALID,0.343071,
2007-06-10, 03:37:00,VALID,914.316,VALID,0,VALID,100,VALID,0.0339617,VALID,20.3158,VALID,189,VALID,0.281631,
2007-06-10, 03:38:00,VALID,914.318,VALID,0,VALID,100,VALID,0,VALID,20.3093,VALID,189,VALID,0.0585029,
2007-06-10, 03:39:00,VALID,914.313,VALID,0,VALID,100,VALID,0,VALID,20.3031,VALID,189,VALID,0.198331,
2007-06-10, 03:40:00,VALID,914.306,VALID,0,VALID,100,VALID,0,VALID,20.3001,VALID,189,VALID,0.302641,
2007-06-10, 03:41:00,VALID,914.308,VALID,0,VALID,100,VALID,0,VALID,20.2934,VALID,189,VALID,0.387091,
2007-06-10, 03:42:00,VALID,914.287,VALID,0,VALID,100,VALID,0,VALID,20.3101,VALID,189,VALID,0.21513,